User: anonymous   Login
Location: Kailua
(21.4020°N, 157.7390°W)
Time: 21:50:17
(UTC-10:00)
Language:

Cosmos 2297 Rocket - Orbit

View from above orbital plane
View from above orbital plane
View from above satellite
View from above satellite

Ground track
Ground track

The orbit data is extracted from the following two-line orbital elements,

1 23405U 94077B   15245.95183763 -.00000233 +00000-0 -95480-4 0  9990
2 23405 070.9840 148.8022 0004785 252.4691 107.5909 14.15165960072842
Epoch (UTC): 02 September 2015 22:50:38
Eccentricity: 0.0004785
inclination: 70.9840°
perigee height: 838 km
apogee height: 845 km
right ascension of ascending node: 148.8022°
argument of perigee: 252.4691°
revolutions per day: 14.15165960
mean anomaly at epoch: 107.5909°
orbit number at epoch: 7284

The dashed part of the orbit path shows where the satellite is in the earth's shadow,  

DLR